📊 Raw Sensor Data
Showing records 38551 to 38575 of 84,931 total
| ID | Distance (ft) | Battery V | Battery A | Int Temp (°F) | Int Humid (%) | Ext Temp (°F) | Solar V | RSSI | SNR | Time Stamp |
|---|---|---|---|---|---|---|---|---|---|---|
| 46393 | 15.4 | 4.13 | 0 | 90 | 49 | 82 | 5.10 | -72 | 7 | 07/15/2025 06:15 PM |
| 46392 | 15.4 | 3.98 | 0 | 90 | 49 | 82 | 5.10 | -74 | 7 | 07/15/2025 06:00 PM |
| 46391 | 15.4 | 4.10 | 0 | 91 | 48 | 81 | 5.10 | -71 | 8 | 07/15/2025 05:45 PM |
| 46390 | 15.4 | 3.98 | 0 | 92 | 47 | 84 | 5.10 | -74 | 7 | 07/15/2025 05:30 PM |
| 46389 | 15.4 | 4.06 | 0 | 92 | 47 | 84 | 5.10 | -72 | 8 | 07/15/2025 05:15 PM |
| 46388 | 15.5 | 3.98 | 0 | 94 | 46 | 84 | 5.10 | -70 | 8 | 07/15/2025 05:00 PM |
| 46387 | 15.4 | 3.98 | 0 | 94 | 45 | 86 | 5.10 | -74 | 7 | 07/15/2025 04:30 PM |
| 46386 | 15.4 | 3.98 | 0 | 94 | 44 | 86 | 5.10 | -72 | 8 | 07/15/2025 04:15 PM |
| 46385 | 15.4 | 4.05 | 0 | 93 | 44 | 86 | 5.10 | -71 | 8 | 07/15/2025 04:00 PM |
| 46384 | 15.4 | 3.98 | 0 | 92 | 44 | 85 | 5.10 | -66 | 7 | 07/15/2025 03:30 PM |
| 46383 | 15.4 | 3.99 | 0 | 92 | 44 | 84 | 5.10 | -65 | 7 | 07/15/2025 03:15 PM |
| 46382 | 15.4 | 3.99 | 0 | 92 | 43 | 84 | 5.10 | -66 | 8 | 07/15/2025 03:00 PM |
| 46381 | 15.4 | 3.99 | 0 | 93 | 42 | 84 | 5.10 | -65 | 7 | 07/15/2025 02:45 PM |
| 46380 | 15.4 | 3.99 | 0 | 92 | 42 | 84 | 5.10 | -66 | 7 | 07/15/2025 02:30 PM |
| 46379 | 15.4 | 4.03 | 0 | 91 | 42 | 86 | 5.10 | -66 | 8 | 07/15/2025 02:15 PM |
| 46378 | 15.4 | 3.99 | 0 | 90 | 42 | 83 | 5.10 | -65 | 8 | 07/15/2025 02:00 PM |
| 46377 | 15.4 | 3.99 | 0 | 89 | 42 | 82 | 5.10 | -65 | 8 | 07/15/2025 01:45 PM |
| 46376 | 15.4 | 3.99 | 0 | 88 | 42 | 80 | 5.10 | -66 | 8 | 07/15/2025 01:30 PM |
| 46375 | 15.4 | 4.14 | 0 | 87 | 42 | 81 | 5.10 | -67 | 7 | 07/15/2025 01:15 PM |
| 46374 | 15.4 | 3.99 | 0 | 86 | 42 | 81 | 5.10 | -65 | 7 | 07/15/2025 01:00 PM |
| 46373 | 15.4 | 3.99 | 0 | 84 | 43 | 81 | 5.10 | -66 | 7 | 07/15/2025 12:45 PM |
| 46372 | 15.5 | 3.99 | 0 | 83 | 43 | 79 | 5.10 | -66 | 7 | 07/15/2025 12:30 PM |
| 46371 | 15.5 | 3.99 | 0 | 82 | 43 | 80 | 5.10 | -65 | 7 | 07/15/2025 12:15 PM |
| 46370 | 15.4 | 4.10 | 0 | 80 | 43 | 79 | 5.10 | -66 | 8 | 07/15/2025 12:00 PM |
| 46369 | 15.4 | 3.99 | 0 | 79 | 43 | 79 | 5.10 | -66 | 8 | 07/15/2025 11:45 AM |